TimeEDT,TemperatureF,Dew PointF,Humidity,Sea Level PressureIn,VisibilityMPH,Wind Direction,Wind SpeedMPH,Gust SpeedMPH,PrecipitationIn,Events,Conditions,WindDirDegrees,DateUTC
12:15 AM,32.0,12.0,44,30.36,10.0,ENE,5.8,-,N/A,,Clear,70,2013-04-04 04:15:00
12:35 AM,32.0,12.4,44,30.36,10.0,ENE,5.8,-,N/A,,Clear,60,2013-04-04 04:35:00
12:55 AM,32.0,11.3,42,30.36,10.0,NE,3.5,-,N/A,,Clear,50,2013-04-04 04:55:00
1:15 AM,31.8,12.2,44,30.36,10.0,NE,3.5,-,N/A,,Clear,40,2013-04-04 05:15:00
1:35 AM,31.6,12.2,45,30.36,10.0,NNE,3.5,-,N/A,,Clear,30,2013-04-04 05:35:00
1:55 AM,30.7,13.8,50,30.36,10.0,NE,4.6,-,N/A,,Clear,40,2013-04-04 05:55:00
2:15 AM,29.7,14.2,53,30.35,10.0,Calm,Calm,-,N/A,,Clear,0,2013-04-04 06:15:00
2:35 AM,30.6,13.6,50,30.35,10.0,Calm,Calm,-,N/A,,Clear,0,2013-04-04 06:35:00
2:55 AM,30.6,12.9,48,30.34,10.0,Calm,Calm,-,N/A,,Clear,0,2013-04-04 06:55:00
3:15 AM,29.3,14.7,55,30.34,10.0,Calm,Calm,-,N/A,,Clear,0,2013-04-04 07:15:00
3:35 AM,29.3,14.5,54,30.33,10.0,Calm,Calm,-,N/A,,Clear,0,2013-04-04 07:35:00
3:55 AM,29.8,13.6,51,30.32,10.0,Calm,Calm,-,N/A,,Clear,0,2013-04-04 07:55:00
4:15 AM,29.1,15.6,57,30.31,10.0,NE,3.5,-,N/A,,Clear,40,2013-04-04 08:15:00
4:35 AM,28.6,15.6,58,30.29,10.0,NE,6.9,-,N/A,,Clear,40,2013-04-04 08:35:00
4:55 AM,29.3,14.2,53,30.29,10.0,NE,6.9,-,N/A,,Clear,50,2013-04-04 08:55:00
5:15 AM,29.1,14.7,55,30.28,10.0,ENE,6.9,-,N/A,,Clear,60,2013-04-04 09:15:00
5:35 AM,29.1,14.4,54,30.28,10.0,ENE,5.8,-,N/A,,Clear,60,2013-04-04 09:35:00
5:55 AM,28.9,14.7,55,30.27,10.0,NE,4.6,-,N/A,,Clear,50,2013-04-04 09:55:00
6:15 AM,29.1,13.8,53,30.27,10.0,ENE,4.6,-,N/A,,Clear,60,2013-04-04 10:15:00
6:35 AM,29.7,12.9,50,30.27,10.0,NE,6.9,-,N/A,,Clear,40,2013-04-04 10:35:00
6:55 AM,28.4,14.0,55,30.26,10.0,NE,4.6,-,N/A,,Clear,40,2013-04-04 10:55:00
7:15 AM,27.1,14.5,59,30.26,10.0,ENE,4.6,-,N/A,,Clear,60,2013-04-04 11:15:00
7:35 AM,27.9,13.8,56,30.26,10.0,Calm,Calm,-,N/A,,Clear,0,2013-04-04 11:35:00
7:55 AM,29.1,13.6,52,30.27,10.0,Calm,Calm,-,N/A,,Clear,0,2013-04-04 11:55:00
8:15 AM,29.8,15.4,55,30.26,10.0,ENE,4.6,-,N/A,,Clear,70,2013-04-04 12:15:00
8:35 AM,30.9,13.8,49,30.26,10.0,ENE,4.6,-,N/A,,Clear,60,2013-04-04 12:35:00
8:55 AM,31.8,13.8,47,30.26,10.0,NE,3.5,-,N/A,,Clear,50,2013-04-04 12:55:00
9:15 AM,33.3,15.1,47,30.24,10.0,NE,4.6,-,N/A,,Clear,50,2013-04-04 13:15:00
9:35 AM,35.2,14.7,43,30.24,10.0,NE,4.6,-,N/A,,Clear,50,2013-04-04 13:35:00
9:55 AM,38.1,14.4,38,30.23,10.0,East,4.6,-,N/A,,Clear,90,2013-04-04 13:55:00
10:15 AM,40.1,14.7,36,30.22,10.0,ENE,6.9,-,N/A,,Clear,70,2013-04-04 14:15:00
10:35 AM,41.7,13.6,32,30.21,10.0,East,6.9,-,N/A,,Clear,80,2013-04-04 14:35:00
10:55 AM,43.5,13.6,30,30.19,10.0,East,9.2,-,N/A,,Clear,80,2013-04-04 14:55:00
11:15 AM,43.9,13.1,29,30.18,10.0,ENE,9.2,-,N/A,,Clear,70,2013-04-04 15:15:00
11:35 AM,45.7,14.7,29,30.17,10.0,ENE,9.2,-,N/A,,Clear,70,2013-04-04 15:35:00
11:55 AM,46.4,12.4,25,30.16,10.0,East,6.9,-,N/A,,Clear,100,2013-04-04 15:55:00
12:55 PM,48.6,14.0,25,30.14,10.0,ESE,3.5,-,N/A,,Clear,110,2013-04-04 16:55:00
1:15 PM,48.2,13.8,25,30.13,10.0,Calm,Calm,-,N/A,,Clear,0,2013-04-04 17:15:00
1:35 PM,48.7,14.0,25,30.13,10.0,Calm,Calm,-,N/A,,Clear,0,2013-04-04 17:35:00
1:55 PM,49.8,12.7,23,30.11,10.0,ESE,4.6,-,N/A,,Clear,110,2013-04-04 17:55:00
2:15 PM,50.5,14.5,24,30.10,10.0,South,4.6,-,N/A,,Clear,170,2013-04-04 18:15:00
2:35 PM,51.1,14.7,24,30.09,10.0,South,3.5,-,N/A,,Clear,170,2013-04-04 18:35:00
2:55 PM,52.0,15.8,24,30.08,10.0,Calm,Calm,-,N/A,,Clear,0,2013-04-04 18:55:00
3:15 PM,52.0,14.9,23,30.07,10.0,Calm,Calm,-,N/A,,Clear,0,2013-04-04 19:15:00
3:35 PM,51.8,15.4,24,30.06,10.0,Calm,Calm,-,N/A,,Clear,0,2013-04-04 19:35:00
3:55 PM,52.0,16.0,24,30.04,10.0,South,4.6,-,N/A,,Clear,180,2013-04-04 19:55:00
4:15 PM,52.5,15.3,23,30.04,10.0,SE,4.6,-,N/A,,Clear,140,2013-04-04 20:15:00
4:35 PM,52.0,16.3,24,30.04,10.0,ESE,3.5,-,N/A,,Clear,120,2013-04-04 20:35:00
4:55 PM,52.0,16.5,25,30.04,10.0,Calm,Calm,-,N/A,,Clear,0,2013-04-04 20:55:00
5:15 PM,51.8,18.1,27,30.03,10.0,SSW,8.1,-,N/A,,Clear,200,2013-04-04 21:15:00
5:35 PM,51.8,17.6,26,30.04,10.0,South,6.9,-,N/A,,Clear,170,2013-04-04 21:35:00
5:55 PM,51.4,18.7,28,30.03,10.0,South,3.5,-,N/A,,Clear,190,2013-04-04 21:55:00
6:15 PM,51.8,18.3,27,30.03,10.0,South,4.6,-,N/A,,Clear,190,2013-04-04 22:15:00
6:35 PM,51.4,18.9,28,30.03,10.0,SSW,4.6,-,N/A,,Clear,200,2013-04-04 22:35:00
6:55 PM,50.9,20.3,30,30.02,10.0,SSW,3.5,-,N/A,,Clear,200,2013-04-04 22:55:00
7:15 PM,50.5,19.0,29,30.02,10.0,Calm,Calm,-,N/A,,Clear,0,2013-04-04 23:15:00
7:35 PM,50.0,19.4,30,30.02,10.0,Calm,Calm,-,N/A,,Clear,0,2013-04-04 23:35:00
7:55 PM,49.1,20.7,33,30.02,10.0,Calm,Calm,-,N/A,,Clear,0,2013-04-04 23:55:00
8:15 PM,46.8,23.7,40,30.01,10.0,Calm,Calm,-,N/A,,Clear,0,2013-04-05 00:15:00
8:55 PM,45.5,24.4,44,30.01,10.0,Calm,Calm,-,N/A,,Clear,0,2013-04-05 00:55:00
9:15 PM,44.6,28.2,53,30.01,10.0,Calm,Calm,-,N/A,,Clear,0,2013-04-05 01:15:00
9:35 PM,44.1,26.2,50,30.02,10.0,Calm,Calm,-,N/A,,Clear,0,2013-04-05 01:35:00
9:55 PM,43.9,26.6,51,30.01,10.0,Calm,Calm,-,N/A,,Clear,0,2013-04-05 01:55:00
10:15 PM,41.9,29.7,62,30.01,10.0,Calm,Calm,-,N/A,,Clear,0,2013-04-05 02:15:00
10:35 PM,41.0,29.1,63,30.01,10.0,Calm,Calm,-,N/A,,Clear,0,2013-04-05 02:35:00
10:55 PM,41.0,27.7,59,30.00,10.0,Calm,Calm,-,N/A,,Clear,0,2013-04-05 02:55:00
11:15 PM,40.3,27.0,59,29.99,10.0,Calm,Calm,-,N/A,,Clear,0,2013-04-05 03:15:00
11:35 PM,38.1,26.8,64,29.99,10.0,Calm,Calm,-,N/A,,Clear,0,2013-04-05 03:35:00
11:55 PM,36.9,29.1,74,29.99,10.0,Calm,Calm,-,N/A,,Clear,0,2013-04-05 03:55:00